Location: Tel Aviv
(32.0670°N, 34.7670°E)
Time: 19:13:52
(UTC+03:00)

Vanguard 2 Rocket - Pass Details

Date: 31 January 2022
Orbit: 553 x 3323 km, 32.9° (Epoch: 24 May)

Event Time Altitude Azimuth Distance (km) Brightness Sun altitude
Exits shadow 01:52:40 54° 84° (E) 3,476 9.6 -59.6°
Drops below altitude 10° 02:06:47 10° 88° (E) 6,281 11.5 -56.7°
Sets 02:11:44 0° 89° (E) 7,290 12.0 -55.7°
